User: anonymous   Login
Location: Garden of he Gods Recreation Area
(37.6010°N, 88.3780°W)
Time: 17:48:41
(UTC-05:00)
Language:

ISS - Orbit

View from above orbital plane
View from above orbital plane
View from above satellite
View from above satellite

Ground track
Ground track

The orbit data is extracted from the following two-line orbital elements,

1 25544U 98067A   19085.50055288  .00016717  00000-0  10270-3 0  9014
2 25544  51.6394  52.2806 0002183 118.8369 241.3002 15.52455349  2404
Epoch (UTC): 26 March 2019 12:00:47
Eccentricity: 0.0002183
inclination: 51.6394°
perigee height: 408 km
apogee height: 411 km
right ascension of ascending node: 52.2806°
argument of perigee: 118.8369°
revolutions per day: 15.52455349
mean anomaly at epoch: 241.3002°
orbit number at epoch: 240

The dashed part of the orbit path shows where the satellite is in the earth's shadow,  

DLR